| time (UTC) | temp F | wind direction | speed MPH | gust MPH | rain 1hr in | rain 24hr in | rain mn in | humidity % | barometer mb |
| 20260903224016 | 92 | 143 | 1.0 | 3.0 | 0.00 | 0.00 | 0.00 | 19 | 1019.6 |
| 20260903223016 | 92 | 243 | 0.0 | 4.0 | 0.00 | 0.00 | 0.00 | 21 | 1019.6 |
| 20260903222037 | 91 | 126 | 1.0 | 3.0 | 0.00 | 0.00 | 0.00 | 22 | 1019.7 |
| 20260903221015 | 90 | 106 | 1.0 | 3.0 | 0.00 | 0.00 | 0.00 | 22 | 1019.8 |
| 20260903220015 | 91 | 141 | 3.0 | 6.0 | 0.00 | 0.00 | 0.00 | 21 | 1019.9 |
| 20260903215016 | 91 | 144 | 1.0 | 6.0 | 0.00 | 0.00 | 0.00 | 20 | 1019.9 |
| 20260903214016 | 91 | 143 | 1.0 | 5.0 | 0.00 | 0.00 | 0.00 | 19 | 1020.1 |
| 20260903213016 | 92 | 144 | 3.0 | 7.0 | 0.00 | 0.00 | 0.00 | 20 | 1020.2 |
| 20260903212017 | 91 | 154 | 0.0 | 1.0 | 0.00 | 0.00 | 0.00 | 22 | 1020.2 |
| 20260903211017 | 91 | 137 | 2.0 | 9.0 | 0.00 | 0.00 | 0.00 | 22 | 1020.4 |
| 20260903210015 | 92 | 127 | 1.0 | 2.0 | 0.00 | 0.00 | 0.00 | 20 | 1020.4 |
| 20260903205015 | 91 | 267 | 2.0 | 6.0 | 0.00 | 0.00 | 0.00 | 20 | 1020.5 |
| 20260903204015 | 90 | 238 | 1.0 | 4.0 | 0.00 | 0.00 | 0.00 | 20 | 1020.7 |
| 20260903203016 | 91 | 252 | 2.0 | 7.0 | 0.00 | 0.00 | 0.00 | 20 | 1020.9 |
| 20260903202019 | 90 | 222 | 2.0 | 6.0 | 0.00 | 0.00 | 0.00 | 21 | 1020.9 |
| 20260903201037 | 90 | 131 | 1.0 | 2.0 | 0.00 | 0.00 | 0.00 | 21 | 1021.0 |
| 20260903200017 | 89 | 130 | 1.0 | 6.0 | 0.00 | 0.00 | 0.00 | 22 | 1021.2 |
| 20260903195015 | 89 | 231 | 0.0 | 2.0 | 0.00 | 0.00 | 0.00 | 23 | 1021.2 |
| 20260903194015 | 88 | 257 | 1.0 | 4.0 | 0.00 | 0.00 | 0.00 | 23 | 1021.4 |
| 20260903193015 | 88 | 134 | 2.0 | 4.0 | 0.00 | 0.00 | 0.00 | 24 | 1021.5 |
| 20260903192016 | 88 | 136 | 2.0 | 5.0 | 0.00 | 0.00 | 0.00 | 25 | 1021.6 |
| 20260903191016 | 87 | 84 | 1.0 | 2.0 | 0.00 | 0.00 | 0.00 | 26 | 1021.8 |
| 20260903190037 | 86 | 163 | 0.0 | 1.0 | 0.00 | 0.00 | 0.00 | 26 | 1022.0 |
| 20260903185017 | 86 | 138 | 1.0 | 6.0 | 0.00 | 0.00 | 0.00 | 25 | 1022.3 |
| 20260903184015 | 85 | 93 | 0.0 | 1.0 | 0.00 | 0.00 | 0.00 | 27 | 1022.4 |
| 20260903183015 | 84 | 304 | 0.0 | 1.0 | 0.00 | 0.00 | 0.00 | 27 | 1022.6 |
| 20260903182016 | 83 | 127 | 0.0 | 1.0 | 0.00 | 0.00 | 0.00 | 27 | 1022.8 |
| 20260903181016 | 83 | 144 | 1.0 | 3.0 | 0.00 | 0.00 | 0.00 | 27 | 1022.9 |
| 20260903180036 | 82 | 145 | 0.0 | 1.0 | 0.00 | 0.00 | 0.00 | 29 | 1023.0 |
| 20260903175037 | 82 | 135 | 0.0 | 1.0 | 0.00 | 0.00 | 0.00 | 27 | 1023.1 |
| 20260903174017 | 82 | 153 | 1.0 | 4.0 | 0.00 | 0.00 | 0.00 | 28 | 1023.2 |
| 20260903173015 | 81 | 271 | 1.0 | 5.0 | 0.00 | 0.00 | 0.00 | 30 | 1023.1 |
| 20260903172015 | 80 | 141 | 1.0 | 3.0 | 0.00 | 0.00 | 0.00 | 30 | 1023.2 |
| 20260903171016 | 80 | 141 | 1.0 | 4.0 | 0.00 | 0.00 | 0.00 | 31 | 1023.2 |
| 20260903170016 | 79 | 237 | 1.0 | 4.0 | 0.00 | 0.00 | 0.00 | 31 | 1023.2 |
| 20260903165016 | 79 | 245 | 1.0 | 3.0 | 0.00 | 0.00 | 0.00 | 31 | 1023.2 |
| 20260903164017 | 79 | 264 | 0.0 | 3.0 | 0.00 | 0.00 | 0.00 | 32 | 1023.2 |
| 20260903163036 | 78 | 223 | 1.0 | 4.0 | 0.00 | 0.00 | 0.00 | 33 | 1023.1 |
| 20260903162015 | 78 | 265 | 1.0 | 4.0 | 0.00 | 0.00 | 0.00 | 35 | 1023.1 |
| 20260903161015 | 77 | 288 | 1.0 | 4.0 | 0.00 | 0.00 | 0.00 | 35 | 1023.1 |
| 20260903160016 | 77 | 276 | 1.0 | 3.0 | 0.00 | 0.00 | 0.00 | 36 | 1023.0 |
| 20260903155016 | 76 | 179 | 1.0 | 5.0 | 0.00 | 0.00 | 0.00 | 37 | 1023.0 |
| 20260903154016 | 75 | 264 | 1.0 | 2.0 | 0.00 | 0.00 | 0.00 | 39 | 1023.1 |
| 20260903153017 | 75 | 274 | 1.0 | 6.0 | 0.00 | 0.00 | 0.00 | 40 | 1023.2 |
| 20260903152015 | 74 | 146 | 0.0 | 3.0 | 0.00 | 0.00 | 0.00 | 41 | 1023.2 |
| 20260903151015 | 73 | 287 | 0.0 | 2.0 | 0.00 | 0.00 | 0.00 | 44 | 1023.3 |
| 20260903150016 | 72 | 287 | 0.0 | 3.0 | 0.00 | 0.00 | 0.00 | 45 | 1023.3 |
| 20260903145016 | 71 | 181 | 0.0 | 2.0 | 0.00 | 0.00 | 0.00 | 47 | 1023.3 |
| 20260903144016 | 70 | 137 | 0.0 | 2.0 | 0.00 | 0.00 | 0.00 | 46 | 1023.4 |
| 20260903143017 | 69 | 131 | 0.0 | 2.0 | 0.00 | 0.00 | 0.00 | 47 | 1023.4 |
| 20260903142017 | 68 | 142 | 0.0 | 1.0 | 0.00 | 0.00 | 0.00 | 48 | 1023.5 |
| 20260903141015 | 66 | 136 | 0.0 | 1.0 | 0.00 | 0.00 | 0.00 | 50 | 1023.4 |
| 20260903140016 | 66 | 0.0 | 0.0 | 0.00 | 0.00 | 0.00 | 51 | 1023.3 | |
| 20260903135016 | 65 | 136 | 0.0 | 1.0 | 0.00 | 0.00 | 0.00 | 51 | 1023.2 |
| 20260903134016 | 64 | 136 | 0.0 | 1.0 | 0.00 | 0.00 | 0.00 | 52 | 1023.1 |
| 20260903133017 | 63 | 136 | 0.0 | 1.0 | 0.00 | 0.00 | 0.00 | 53 | 1022.9 |
| 20260903132017 | 62 | 140 | 1.0 | 2.0 | 0.00 | 0.00 | 0.00 | 53 | 1022.9 |
| 20260903131017 | 60 | 0.0 | 0.0 | 0.00 | 0.00 | 0.00 | 56 | 1022.9 | |
| 20260903130015 | 59 | 137 | 0.0 | 1.0 | 0.00 | 0.00 | 0.00 | 58 | 1022.8 |
| 20260903125015 | 60 | 0.0 | 0.0 | 0.00 | 0.00 | 0.00 | 59 | 1022.6 | |
| 20260903124016 | 60 | 0.0 | 0.0 | 0.00 | 0.00 | 0.00 | 58 | 1022.5 | |
| 20260903123016 | 58 | 137 | 0.0 | 1.0 | 0.00 | 0.00 | 0.00 | 60 | 1022.4 |
| 20260903122016 | 57 | 137 | 0.0 | 1.0 | 0.00 | 0.00 | 0.00 | 65 | 1022.3 |
| 20260903121017 | 58 | 0.0 | 0.0 | 0.00 | 0.00 | 0.00 | 65 | 1022.1 | |
| 20260903120014 | 58 | 0.0 | 0.0 | 0.00 | 0.00 | 0.00 | 65 | 1022.1 | |
| 20260903115015 | 58 | 0.0 | 0.0 | 0.00 | 0.00 | 0.00 | 65 | 1022.0 | |
| 20260903114018 | 58 | 0.0 | 0.0 | 0.00 | 0.00 | 0.00 | 65 | 1022.1 | |
| 20260903113016 | 58 | 0.0 | 0.0 | 0.00 | 0.00 | 0.00 | 67 | 1022.1 | |
| 20260903112016 | 58 | 0.0 | 0.0 | 0.00 | 0.00 | 0.00 | 67 | 1022.1 | |
| 20260903111017 | 59 | 0.0 | 0.0 | 0.00 | 0.00 | 0.00 | 67 | 1022.0 | |
| 20260903110017 | 58 | 0.0 | 0.0 | 0.00 | 0.00 | 0.00 | 68 | 1022.0 | |
| 20260903105015 | 58 | 0.0 | 0.0 | 0.00 | 0.00 | 0.00 | 70 | 1022.0 | |
| 20260903104015 | 59 | 0.0 | 0.0 | 0.00 | 0.00 | 0.00 | 69 | 1022.0 | |
| 20260903103016 | 58 | 137 | 0.0 | 1.0 | 0.00 | 0.00 | 0.00 | 71 | 1021.9 |
| 20260903102016 | 58 | 0.0 | 0.0 | 0.00 | 0.00 | 0.00 | 70 | 1022.0 | |
| 20260903101036 | 59 | 137 | 0.0 | 1.0 | 0.00 | 0.00 | 0.00 | 70 | 1021.9 |
| 20260903100017 | 60 | 0.0 | 0.0 | 0.00 | 0.00 | 0.00 | 68 | 1022.1 | |
| 20260903095017 | 60 | 137 | 0.0 | 1.0 | 0.00 | 0.00 | 0.00 | 67 | 1022.0 |
| 20260903094015 | 59 | 148 | 1.0 | 4.0 | 0.00 | 0.00 | 0.00 | 70 | 1022.1 |
| 20260903093015 | 58 | 140 | 0.0 | 1.0 | 0.00 | 0.00 | 0.00 | 72 | 1022.1 |
| 20260903092015 | 59 | 0.0 | 0.0 | 0.00 | 0.00 | 0.00 | 71 | 1022.4 | |
| 20260903091016 | 59 | 0.0 | 0.0 | 0.00 | 0.00 | 0.00 | 71 | 1022.3 | |
| 20260903090016 | 60 | 140 | 0.0 | 1.0 | 0.00 | 0.00 | 0.00 | 70 | 1022.3 |
| 20260903085017 | 60 | 0.0 | 0.0 | 0.00 | 0.00 | 0.00 | 68 | 1022.2 | |
| 20260903084017 | 62 | 0.0 | 0.0 | 0.00 | 0.00 | 0.00 | 66 | 1022.1 | |
| 20260903083015 | 62 | 0.0 | 0.0 | 0.00 | 0.00 | 0.00 | 65 | 1022.0 | |
| 20260903082015 | 62 | 143 | 0.0 | 1.0 | 0.00 | 0.00 | 0.00 | 65 | 1022.1 |
| 20260903081020 | 62 | 144 | 0.0 | 1.0 | 0.00 | 0.00 | 0.00 | 65 | 1022.3 |
| 20260903080016 | 62 | 144 | 0.0 | 1.0 | 0.00 | 0.00 | 0.00 | 65 | 1022.3 |
| 20260903075017 | 62 | 145 | 0.0 | 1.0 | 0.00 | 0.00 | 0.00 | 65 | 1022.3 |
| 20260903074017 | 62 | 141 | 1.0 | 2.0 | 0.00 | 0.00 | 0.00 | 66 | 1022.5 |
| 20260903073017 | 62 | 0.0 | 0.0 | 0.00 | 0.00 | 0.00 | 66 | 1022.6 | |
| 20260903072015 | 62 | 140 | 0.0 | 3.0 | 0.00 | 0.00 | 0.00 | 66 | 1022.6 |
| 20260903071015 | 62 | 144 | 0.0 | 1.0 | 0.00 | 0.00 | 0.00 | 66 | 1022.7 |
| 20260903070036 | 63 | 0.0 | 0.0 | 0.00 | 0.00 | 0.00 | 65 | 1022.7 | |
| 20260903065016 | 63 | 144 | 0.0 | 1.0 | 0.00 | 0.00 | 0.00 | 65 | 1022.7 |
| 20260903064017 | 63 | 144 | 0.0 | 3.0 | 0.00 | 0.00 | 0.00 | 64 | 1022.5 |
| 20260903063037 | 63 | 144 | 0.0 | 2.0 | 0.00 | 0.00 | 0.00 | 64 | 1022.7 |
| 20260903062015 | 63 | 144 | 0.0 | 1.0 | 0.00 | 0.00 | 0.00 | 65 | 1022.9 |
| 20260903061015 | 64 | 144 | 0.0 | 1.0 | 0.00 | 0.00 | 0.00 | 64 | 1022.8 |
| 20260903060035 | 64 | 144 | 0.0 | 1.0 | 0.00 | 0.00 | 0.00 | 64 | 1022.8 |
| 20260903055016 | 64 | 0.0 | 0.0 | 0.00 | 0.00 | 0.00 | 64 | 1022.6 | |
| 20260903054036 | 65 | 221 | 0.0 | 1.0 | 0.00 | 0.00 | 0.00 | 64 | 1022.5 |
| 20260903053037 | 65 | 0.0 | 0.0 | 0.00 | 0.00 | 0.00 | 62 | 1022.9 | |
| 20260903052017 | 66 | 0.0 | 0.0 | 0.00 | 0.00 | 0.00 | 61 | 1023.1 | |
| 20260903051015 | 66 | 0.0 | 0.0 | 0.00 | 0.00 | 0.00 | 61 | 1022.8 | |
| 20260903050015 | 67 | 0.0 | 0.0 | 0.00 | 0.00 | 0.00 | 60 | 1022.8 | |
| 20260903045015 | 67 | 0.0 | 0.0 | 0.00 | 0.00 | 0.00 | 59 | 1022.9 | |
| 20260903044016 | 67 | 0.0 | 0.0 | 0.00 | 0.00 | 0.00 | 58 | 1023.0 | |
| 20260903043016 | 68 | 0.0 | 0.0 | 0.00 | 0.00 | 0.00 | 57 | 1022.9 | |
| 20260903042016 | 68 | 0.0 | 0.0 | 0.00 | 0.00 | 0.00 | 57 | 1022.9 | |
| 20260903041017 | 69 | 0.0 | 0.0 | 0.00 | 0.00 | 0.00 | 55 | 1023.1 | |
| 20260903040015 | 69 | 7 | 0.0 | 1.0 | 0.00 | 0.00 | 0.00 | 54 | 1022.8 |
| 20260903035015 | 70 | 338 | 0.0 | 2.0 | 0.00 | 0.00 | 0.00 | 53 | 1022.7 |
| 20260903034016 | 70 | 27 | 0.0 | 2.0 | 0.00 | 0.00 | 0.00 | 51 | 1022.5 |
| 20260903033016 | 71 | 12 | 1.0 | 4.0 | 0.00 | 0.00 | 0.00 | 50 | 1022.7 |
| 20260903032016 | 72 | 358 | 0.0 | 2.0 | 0.00 | 0.00 | 0.00 | 47 | 1022.4 |
| 20260903031017 | 73 | 71 | 0.0 | 2.0 | 0.00 | 0.00 | 0.00 | 46 | 1022.4 |
| 20260903030017 | 73 | 35 | 0.0 | 2.0 | 0.00 | 0.00 | 0.00 | 44 | 1022.4 |
| 20260903025015 | 74 | 83 | 0.0 | 2.0 | 0.00 | 0.00 | 0.00 | 44 | 1022.7 |
| 20260903024016 | 75 | 208 | 0.0 | 2.0 | 0.00 | 0.00 | 0.00 | 43 | 1022.0 |
| 20260903023016 | 76 | 25 | 0.0 | 2.0 | 0.00 | 0.00 | 0.00 | 43 | 1021.4 |
| 20260903022016 | 77 | 41 | 2.0 | 7.0 | 0.00 | 0.00 | 0.00 | 42 | 1021.0 |
| 20260903021016 | 76 | 71 | 1.0 | 4.0 | 0.00 | 0.00 | 0.00 | 40 | 1020.9 |
| 20260903020037 | 76 | 239 | 1.0 | 4.0 | 0.00 | 0.00 | 0.00 | 44 | 1021.2 |
| 20260903015035 | 76 | 283 | 0.0 | 1.0 | 0.00 | 0.00 | 0.00 | 43 | 1020.3 |
| 20260903014035 | 77 | 255 | 0.0 | 1.0 | 0.00 | 0.00 | 0.00 | 41 | 1020.0 |
| 20260903013015 | 78 | 93 | 0.0 | 1.0 | 0.00 | 0.00 | 0.00 | 40 | 1020.1 |
| 20260903012036 | 79 | 93 | 0.0 | 1.0 | 0.00 | 0.00 | 0.00 | 39 | 1020.0 |
| 20260903011016 | 79 | 89 | 0.0 | 2.0 | 0.00 | 0.00 | 0.00 | 38 | 1020.1 |
| 20260903010017 | 80 | 95 | 0.0 | 2.0 | 0.00 | 0.00 | 0.00 | 38 | 1020.2 |
| 20260903005017 | 80 | 76 | 0.0 | 2.0 | 0.00 | 0.00 | 0.00 | 37 | 1020.2 |
| 20260903004015 | 81 | 91 | 1.0 | 2.0 | 0.00 | 0.00 | 0.00 | 36 | 1020.1 |
| 20260903003015 | 81 | 94 | 0.0 | 1.0 | 0.00 | 0.00 | 0.00 | 36 | 1020.1 |
| 20260903002015 | 82 | 90 | 0.0 | 2.0 | 0.00 | 0.00 | 0.00 | 35 | 1020.1 |
| 20260903000516 | 83 | 69 | 0.0 | 3.0 | 0.00 | 0.00 | 0.00 | 35 | 1020.1 |
| 20260902235517 | 84 | 89 | 1.0 | 3.0 | 0.00 | 0.00 | 0.00 | 34 | 1020.1 |
| 20260902234517 | 85 | 87 | 2.0 | 6.0 | 0.00 | 0.00 | 0.00 | 33 | 1020.1 |
| 20260902233515 | 86 | 90 | 2.0 | 4.0 | 0.00 | 0.00 | 0.00 | 32 | 1020.2 |
| 20260902232515 | 86 | 92 | 2.0 | 3.0 | 0.00 | 0.00 | 0.00 | 31 | 1020.2 |
| 20260902231515 | 86 | 98 | 1.0 | 4.0 | 0.00 | 0.00 | 0.00 | 32 | 1020.3 |
| 20260902230516 | 86 | 88 | 2.0 | 4.0 | 0.00 | 0.00 | 0.00 | 31 | 1020.4 |
| 20260902225516 | 87 | 103 | 1.0 | 3.0 | 0.00 | 0.00 | 0.00 | 30 | 1020.4 |
| 20260902224517 | 87 | 94 | 2.0 | 4.0 | 0.00 | 0.00 | 0.00 | 32 | 1020.6 |